{"data":{"norad_id":65859,"epoch":"2026-05-25T03:45:06.759936Z","epoch_age_seconds":71702,"freshness":"FRESH","line1":"1 65859U 25223F   26145.15632824  .00019428  00000+0  58444-3 0  9997","line2":"2 65859  53.1603 298.9587 0000743  59.8557 300.2519 15.34410843 35915","mean_motion":15.34410843,"eccentricity":7.43e-5,"inclination_deg":53.1603,"raan_deg":298.9587,"arg_perigee_deg":59.8557,"mean_anomaly_deg":300.2519,"bstar":0.00058444,"rev_number":3591,"period_min":93.847094900906,"perigee_km":462.16274068048,"apogee_km":463.17928475118,"semimajor_km":6840.8080127158,"source":"CELESTRAK","updated_at":"2026-05-25T13:38:20.971257Z"}}